{"data":{"norad_id":65948,"epoch":"2026-05-25T01:02:14.784288Z","epoch_age_seconds":64616,"freshness":"FRESH","line1":"1 65948U 25228B   26145.04322667  .00003406  00000+0  47551-3 0  9996","line2":"2 65948  51.8997  17.9466 0000942 102.1434 257.9633 14.79938587 34605","mean_motion":14.79938587,"eccentricity":9.42e-5,"inclination_deg":51.8997,"raan_deg":17.9466,"arg_perigee_deg":102.1434,"mean_anomaly_deg":257.9633,"bstar":0.00047551,"rev_number":3460,"period_min":97.301334842484,"perigee_km":628.85787135565,"apogee_km":630.17811355623,"semimajor_km":7007.6549924559,"source":"CELESTRAK","updated_at":"2026-05-25T13:38:05.844228Z"}}